[[{"header":{"parameterUnit":"m.s-1","parameterCategory":1,"la1":30.2991,"la2":30.254,"lo1":-89.0895,"lo2":-89.0444,"dy":0.0017,"dx":0.0017,"nx":28,"ny":28,"refTime":"2025-01-01T03:00:00:Z","depth":0,"parameterNumber":2,"parameterNumberName":"U-component_of_WINDS"},"data":[0,0,0,0,0,0,0,0,0,0,0,0,0,0,0,0,0,0,0,0,0,0,0,0,0,0,0,0,0,0,0,0,0,0,0,0,0,0,0,0,0,0,0,0,0,0,0,0,0,0,0,0,0,0,0,0,0,0,2.4903,2.4904,0,2.4992,2.4993,2.4994,2.4976,2.4974,2.4973,2.4971,2.5064,2.5067,2.5071,0,0,0,0,0,0,0,0,0,0,0,0,0,2.472,2.4724,2.4903,2.4904,2.4905,2.4992,2.4993,2.4994,2.4976,2.4974,2.4972,2.497,2.5062,2.5067,2.5072,0,0,0,0,0,0,0,0,0,0,0,0,0,2.4804,2.4725,2.4903,2.4907,2.4908,2.4992,2.4993,2.4995,2.4977,2.4974,2.4972,2.4969,2.5061,2.5066,2.5072,2.5158,0,0,2.5091,2.5093,0,0,0,0,0,0,0,0,2.4799,2.481,2.4905,2.4907,2.4908,2.497,2.4962,2.505,2.4977,2.4951,2.4971,2.4968,2.5035,2.5043,2.5065,2.5163,2.5167,2.5091,2.5095,2.5097,2.5099,0,0,0,0,0,0,0,2.4793,2.4806,2.4938,2.4907,2.4908,2.4905,2.4914,2.4979,2.5005,2.4953,2.4952,2.4962,2.5035,2.5059,2.5067,2.5168,2.5091,2.5096,2.51,2.5102,2.5343,2.5345,0,0,0,0,0,0,2.4786,2.4802,2.4936,2.4941,2.4846,2.491,2.492,2.4953,2.5005,2.501,2.4964,2.4961,2.505,2.506,2.507,2.5175,2.5097,2.5103,2.5106,2.534,2.5343,2.5346,0,0,0,0,0,0,2.4782,2.4798,2.4932,2.4871,2.4888,2.4916,2.4953,2.4956,2.498,2.5013,2.5018,2.4984,2.5048,2.5061,2.5137,2.5178,2.5106,2.5111,2.5337,2.5341,2.5345,2.5385,0,0,0,0,0,0,2.4777,2.4796,2.4829,2.4872,2.4891,2.4997,2.4955,2.4959,2.499,2.4987,2.5033,2.5038,2.5047,2.5128,2.5143,2.5185,2.5116,2.5333,2.5338,2.5343,2.538,2.539,2.5399,0,0,0,0,0,2.477,2.4837,2.483,2.4847,2.4932,2.4999,2.501,2.5019,2.4993,2.5027,2.5048,2.5037,2.5171,2.5136,2.5152,2.5197,2.533,2.5337,2.5343,2.5376,2.5388,2.5399,0,0,0,0,0,0,2.4798,2.4842,2.4836,2.4918,2.4955,2.4996,2.5038,2.5031,2.5077,2.5072,2.5081,2.5092,2.5169,2.519,2.515,2.5284,2.5247,2.5257,2.5267,2.5279,2.5288,2.5281,2.5121,0,0,0,0,0,2.4814,2.4864,2.49,2.4969,2.4988,2.501,2.5039,2.5043,2.5082,2.5097,2.5124,2.5163,2.5214,2.5247,2.5296,2.5383,2.5394,2.5422,2.5431,2.5439,2.5448,2.5497,2.551,2.5367,2.5367,2.5367,0,0,2.4847,2.4877,2.4908,2.4976,2.5004,2.5057,2.5023,2.508,2.5119,2.5106,2.5179,2.52,2.5244,2.5326,2.5364,2.5346,2.549,2.5447,2.5453,2.5457,2.5505,2.5518,2.553,2.5371,2.537,2.537,0,0,2.4934,2.4961,2.5022,2.5052,2.5096,2.5111,2.5126,2.5168,2.5181,2.5255,2.5246,2.5294,2.5381,2.5413,2.544,2.5541,2.5533,2.5557,2.5605,2.5653,2.5664,2.5674,2.5712,2.5725,2.5565,2.5565,2.5565,0,2.4969,2.5047,2.5055,2.5113,2.5144,2.5134,2.5197,2.5225,2.5283,2.5305,2.5285,2.5395,2.5424,2.5514,2.5538,2.5561,2.5579,2.5552,2.5662,2.5672,2.5682,2.5717,2.5731,2.5568,2.5567,2.5567,2.5567,0,2.509,2.5144,2.5189,2.5245,2.528,2.534,2.5358,2.5393,2.5394,2.5411,2.5486,2.5521,2.5577,2.5598,2.5599,2.5689,2.5677,2.5659,2.5623,2.5698,2.5732,2.5745,2.5572,2.5571,2.557,2.5569,0,0,2.5197,2.5257,2.5273,2.5299,2.5348,2.539,2.5451,2.5505,2.5536,2.5576,2.5628,2.5702,2.5687,2.5718,2.5723,2.5765,2.5844,2.5742,2.5744,2.5761,2.5947,2.5961,2.5976,2.5839,2.5841,2.5843,2.5944,0,2.5289,2.5395,2.5404,2.5499,2.5551,2.5543,2.5595,2.5632,2.5649,2.5696,2.5715,2.5769,2.5743,2.5762,2.5803,2.5826,2.5882,2.5819,2.5888,2.5891,2.5878,2.5994,2.6008,2.6101,2.5957,2.5959,2.596,0,2.5411,2.5455,2.5556,2.5598,2.562,2.5667,2.5719,2.5763,2.5804,2.5814,2.585,2.585,2.5913,2.5874,2.5962,2.5919,2.5948,2.5963,2.5967,2.5975,2.5931,2.6005,2.6131,2.6145,2.5981,2.5979,2.5978,0,2.5481,2.5565,2.5637,2.5659,2.571,2.5744,2.5767,2.5805,2.5838,2.5883,2.5905,2.5957,2.5986,2.6026,2.6041,2.601,2.6129,2.609,2.614,2.614,2.6166,2.6164,2.6298,2.6183,2.6182,2.6182,2.6182,0,2.5584,2.5646,2.5669,2.5713,2.5783,2.5793,2.5862,2.5884,2.5918,2.5967,2.5963,2.6009,2.6025,2.6074,2.6086,2.6158,2.617,2.6181,2.6184,2.6182,2.6181,2.6202,2.6196,2.6186,2.6185,2.6184,2.6184,0,2.5674,2.5691,2.5769,2.5811,2.5823,2.5873,2.5909,2.5952,2.5969,2.6031,2.6046,2.6073,2.6131,2.6149,2.6219,2.6227,2.6311,2.6308,2.6297,2.6298,2.6347,2.6343,2.65,2.6522,2.6391,2.6392,2.6393,0,2.5739,2.5786,2.5833,2.5866,2.589,2.5942,2.5975,2.5987,2.6023,2.6074,2.6111,2.6168,2.6214,2.6307,2.6334,2.6387,2.6386,2.6437,2.6394,2.6391,2.6388,2.6385,2.6391,2.6446,2.6447,2.6448,2.6449,0,2.5853,2.5859,2.5907,2.5959,2.5999,2.604,2.608,2.6106,2.6125,2.6164,2.6223,2.6259,2.6331,2.6388,2.6443,2.6467,2.6462,2.6463,2.6477,2.6476,2.6469,2.6475,2.6321,2.6459,2.6458,2.6457,2.6457,2.6456,2.5933,2.5975,2.6016,2.6069,2.6101,2.6138,2.6181,2.6203,2.6253,2.6311,2.6316,2.638,2.6421,2.6494,2.6521,2.6572,2.6558,2.6578,2.6584,2.6589,2.6594,2.646,2.6582,2.6582,2.6582,2.6582,2.6581,0,2.6048,2.6073,2.6123,2.6179,2.6221,2.6212,2.6256,2.6292,2.6349,2.6387,2.6433,2.6501,2.6557,2.6588,2.6644,2.6679,2.6678,2.6694,2.6692,2.6698,2.6603,2.6585,2.6693,2.6693,2.6693,2.6693,2.6693,2.6693,2.6113,2.6184,2.6196,2.6284,2.6309,2.6371,2.6398,2.6433,2.6464,2.654,2.6586,2.6606,2.6642,2.6701,2.6752,2.676,2.6781,2.6798,2.6805,2.6716,2.6704,2.6693,2.6677,2.6802,2.6803,2.6895,2.6896,2.6897]},{"header":{"parameterUnit":"m.s-1","parameterCategory":1,"la1":30.2991,"la2":30.254,"lo1":-89.0895,"lo2":-89.0444,"dy":0.0017,"dx":0.0017,"nx":28,"ny":28,"refTime":"2025-01-01T03:00:00:Z","depth":0,"parameterNumber":3,"parameterNumberName":"V-component_of_WINDS"},"data":[0,0,0,0,0,0,0,0,0,0,0,0,0,0,0,0,0,0,0,0,0,0,0,0,0,0,0,0,0,0,0,0,0,0,0,0,0,0,0,0,0,0,0,0,0,0,0,0,0,0,0,0,0,0,0,0,0,0,-2.3963,-2.3964,0,-2.4063,-2.4064,-2.4065,-2.4126,-2.4126,-2.4126,-2.4127,-2.4228,-2.423,-2.4232,0,0,0,0,0,0,0,0,0,0,0,0,0,-2.3824,-2.3826,-2.3963,-2.3964,-2.3965,-2.4062,-2.4064,-2.4065,-2.4126,-2.4126,-2.4126,-2.4127,-2.4227,-2.423,-2.4233,0,0,0,0,0,0,0,0,0,0,0,0,0,-2.39,-2.3827,-2.3962,-2.4007,-2.4012,-2.4062,-2.4064,-2.4065,-2.4126,-2.4126,-2.4126,-2.4127,-2.4226,-2.4229,-2.4233,-2.4246,0,0,-2.4244,-2.4245,0,0,0,0,0,0,0,0,-2.3896,-2.3905,-2.3999,-2.4004,-2.401,-2.4082,-2.4052,-2.4126,-2.4125,-2.4082,-2.4127,-2.4127,-2.4179,-2.4186,-2.4204,-2.4251,-2.4255,-2.4244,-2.4246,-2.4248,-2.4249,0,0,0,0,0,0,0,-2.389,-2.3901,-2.4002,-2.4001,-2.4007,-2.4022,-2.4033,-2.4066,-2.4127,-2.4086,-2.4091,-2.4102,-2.4182,-2.42,-2.4207,-2.4256,-2.4244,-2.4247,-2.425,-2.4251,-2.4319,-2.4319,0,0,0,0,0,0,-2.3878,-2.3896,-2.3999,-2.4005,-2.3953,-2.4024,-2.4037,-2.4058,-2.4127,-2.4137,-2.4101,-2.4104,-2.4194,-2.4202,-2.4211,-2.423,-2.4248,-2.4251,-2.4253,-2.4319,-2.4319,-2.4318,0,0,0,0,0,0,-2.3875,-2.3887,-2.3995,-2.3952,-2.3967,-2.4026,-2.405,-2.406,-2.4079,-2.4138,-2.4149,-2.4109,-2.4195,-2.4205,-2.4237,-2.4235,-2.4253,-2.4256,-2.432,-2.4319,-2.4319,-2.4269,0,0,0,0,0,0,-2.3871,-2.3885,-2.3891,-2.3952,-2.3969,-2.402,-2.405,-2.4062,-2.4085,-2.409,-2.4148,-2.4159,-2.4196,-2.4231,-2.424,-2.424,-2.4259,-2.432,-2.4319,-2.4319,-2.4272,-2.4267,-2.4264,0,0,0,0,0,-2.3865,-2.3873,-2.3891,-2.3903,-2.3977,-2.4019,-2.4029,-2.4072,-2.4085,-2.4091,-2.4129,-2.4157,-2.4233,-2.4234,-2.4245,-2.4245,-2.4321,-2.432,-2.4319,-2.4273,-2.4268,-2.4264,0,0,0,0,0,0,-2.381,-2.3882,-2.3902,-2.393,-2.3968,-2.403,-2.4039,-2.4066,-2.4101,-2.4104,-2.4156,-2.4168,-2.4194,-2.4223,-2.4222,-2.4261,-2.428,-2.4281,-2.4242,-2.4237,-2.4233,-2.4226,-2.4262,0,0,0,0,0,-2.38,-2.3829,-2.389,-2.3908,-2.3926,-2.3979,-2.3999,-2.4029,-2.4071,-2.4087,-2.4127,-2.4166,-2.42,-2.422,-2.4254,-2.4276,-2.429,-2.4282,-2.4278,-2.4274,-2.4275,-2.4289,-2.4286,-2.4316,-2.4316,-2.4316,0,0,-2.3782,-2.3825,-2.3839,-2.3898,-2.3931,-2.3959,-2.3992,-2.402,-2.4042,-2.4091,-2.4123,-2.4154,-2.4201,-2.4228,-2.4242,-2.4253,-2.427,-2.4273,-2.427,-2.4273,-2.4288,-2.4285,-2.4282,-2.4315,-2.4315,-2.4315,0,0,-2.3762,-2.3797,-2.3816,-2.3849,-2.3899,-2.3934,-2.3939,-2.3997,-2.4019,-2.4052,-2.409,-2.4116,-2.4172,-2.4204,-2.4227,-2.422,-2.4246,-2.4229,-2.4208,-2.4221,-2.4219,-2.4217,-2.4214,-2.4212,-2.4229,-2.4229,-2.4229,0,-2.3733,-2.3776,-2.3823,-2.3849,-2.3873,-2.392,-2.394,-2.3969,-2.4027,-2.4043,-2.4055,-2.4126,-2.4161,-2.4196,-2.4194,-2.4211,-2.4218,-2.4222,-2.4216,-2.4214,-2.4213,-2.4211,-2.421,-2.4227,-2.4227,-2.4227,-2.4228,0,-2.3737,-2.3767,-2.3777,-2.3832,-2.3858,-2.388,-2.393,-2.395,-2.3978,-2.4012,-2.4045,-2.4088,-2.4132,-2.4142,-2.4169,-2.4181,-2.4186,-2.4206,-2.4226,-2.4207,-2.4206,-2.4205,-2.4223,-2.4224,-2.4225,-2.4226,0,0,-2.3685,-2.3766,-2.3769,-2.3794,-2.3853,-2.3877,-2.3901,-2.3944,-2.396,-2.3999,-2.4021,-2.4067,-2.4086,-2.4113,-2.4144,-2.4155,-2.4146,-2.4174,-2.4176,-2.4167,-2.4161,-2.4145,-2.4143,-2.4164,-2.4164,-2.4164,-2.4157,0,-2.3674,-2.372,-2.3763,-2.3794,-2.3822,-2.3867,-2.3888,-2.3927,-2.3959,-2.3987,-2.4023,-2.4054,-2.4077,-2.4093,-2.4106,-2.4144,-2.4145,-2.4145,-2.4184,-2.4185,-2.4171,-2.4143,-2.4126,-2.4117,-2.4157,-2.4157,-2.4157,0,-2.3667,-2.3704,-2.3737,-2.3794,-2.3807,-2.3825,-2.3868,-2.3895,-2.3939,-2.3961,-2.3991,-2.4024,-2.4052,-2.4069,-2.4108,-2.4107,-2.4125,-2.4146,-2.4147,-2.4152,-2.4169,-2.4146,-2.4115,-2.4113,-2.4156,-2.4156,-2.4156,0,-2.3624,-2.3683,-2.3711,-2.3731,-2.3797,-2.3809,-2.3837,-2.3882,-2.3905,-2.3942,-2.3958,-2.3997,-2.4019,-2.4048,-2.4091,-2.41,-2.4125,-2.4146,-2.4144,-2.4143,-2.4147,-2.4146,-2.4118,-2.416,-2.416,-2.416,-2.416,0,-2.3607,-2.3626,-2.3693,-2.3709,-2.3732,-2.3781,-2.3802,-2.3834,-2.3873,-2.3897,-2.3938,-2.3959,-2.4015,-2.4043,-2.4076,-2.4103,-2.4112,-2.4131,-2.414,-2.4127,-2.4125,-2.414,-2.4141,-2.4159,-2.4159,-2.416,-2.416,0,-2.3563,-2.3609,-2.3642,-2.3702,-2.3718,-2.3731,-2.3783,-2.3801,-2.3836,-2.3865,-2.3875,-2.3929,-2.3964,-2.401,-2.4059,-2.4082,-2.4104,-2.4118,-2.4089,-2.4094,-2.409,-2.4089,-2.4069,-2.4069,-2.4111,-2.4111,-2.411,0,-2.3549,-2.3565,-2.3626,-2.3646,-2.3672,-2.3703,-2.3726,-2.3775,-2.3798,-2.3849,-2.3861,-2.3899,-2.3932,-2.3986,-2.403,-2.4067,-2.4082,-2.4073,-2.4088,-2.4075,-2.4081,-2.4079,-2.4081,-2.4068,-2.4068,-2.4067,-2.4067,0,-2.3519,-2.3541,-2.3573,-2.3614,-2.3641,-2.3675,-2.3711,-2.3724,-2.378,-2.3804,-2.384,-2.3866,-2.3916,-2.3954,-2.3997,-2.4026,-2.4055,-2.4062,-2.4063,-2.405,-2.4032,-2.4041,-2.4078,-2.4062,-2.4062,-2.4062,-2.4063,-2.4063,-2.3489,-2.3505,-2.3551,-2.3586,-2.3618,-2.3651,-2.3671,-2.3708,-2.3739,-2.3784,-2.3811,-2.3846,-2.389,-2.3952,-2.3979,-2.4007,-2.4019,-2.4021,-2.4021,-2.4021,-2.4017,-2.4028,-2.4015,-2.4016,-2.4016,-2.4016,-2.4016,0,-2.3461,-2.3492,-2.3524,-2.3573,-2.36,-2.3627,-2.3668,-2.3689,-2.3719,-2.3758,-2.379,-2.3831,-2.3868,-2.3914,-2.3954,-2.3967,-2.3981,-2.3976,-2.3975,-2.3981,-2.4005,-2.3999,-2.3963,-2.3963,-2.3963,-2.3963,-2.3963,-2.3963,-2.3449,-2.3477,-2.3504,-2.3548,-2.358,-2.3615,-2.3637,-2.3667,-2.3698,-2.3743,-2.3773,-2.3803,-2.3845,-2.3888,-2.3922,-2.3935,-2.3947,-2.3937,-2.3953,-2.3975,-2.3979,-2.3984,-2.3979,-2.3939,-2.3939,-2.3928,-2.3927,-2.3927]}]]